Temperature
17 17 16 16 16 16 16 16 16 16 16 16 16 15 15 15 15 14 14 14 14 14 14 14 14 14 14 14 14 14 14 14 14 15 15 15 15 15 15 15 15 15 15
17 17 17 16 16 16 16 16 16 16 16 16 16 16 15 15 15 15 15 14 14 14 14 14 14 14 14 14 14 14 14 14 14 15 15 15 15 15 15 15 15 15 15
17 17 17 16 16 16 16 16 16 16 16 16 16 16 16 16 15 15 15 15 15 14 14 14 14 14 14 14 14 14 14 14 14 14 15 15 15 15 15 15 15 15 15
17 17 17 17 16 16 16 16 16 16 16 16 16 16 16 16 15 15 15 15 15 15 14 14 14 14 14 14 14 14 14 14 14 14 14 14 15 15 15 15 15 15 15
17 17 16 16 16 16 16 16 16 16 16 16 16 16 16 15 15 15 15 15 15 15 14 14 14 14 14 14 14 14 14 14 14 13 14 14 14 14 14 14 14 14 14
17 17 17 16 16 16 16 16 16 16 16 16 16 15 15 15 15 15 15 15 15 14 14 14 14 14 14 14 14 14 14 13 13 13 13 13 13 13 13 13 12 12 13
17 16 16 16 16 16 16 16 16 16 16 16 15 15 15 15 15 15 14 14 14 14 14 13 13 13 13 13 13 13 13 12 12 12 12 12 12 12 12 12 12 12 12
16 16 16 16 15 15 15 15 15 15 15 15 15 14 14 14 14 14 14 13 13 13 13 12 12 12 12 12 12 12 12 12 11 11 11 11 11 11 11 10 10 11 11
15 15 15 15 15 15 15 15 15 14 14 14 14 13 13 13 13 13 12 12 12 12 11 11 11 11 11 11 11 11 11 11 10 10 10 10 10 10 10 10 10 10 10
14 14 14 14 14 14 14 14 13 13 13 13 13 12 12 12 12 11 11 11 11 11 11 10 10 10 10 10 10 10 10 10 10 10 9 9 9 9 9 9 9 8 8
14 14 13 13 13 13 13 13 12 12 12 12 11 11 11 11 11 11 10 10 10 10 10 9 9 9 9 9 8 8 8 8 8 8 8 8 8 8 8 8 7 7 7
13 13 13 12 12 12 12 11 11 11 11 11 10 10 10 10 10 10 9 9 9 9 9 8 8 8 8 7 7 7 7 7 7 7 7 7 7 7 7 7 7 7 6
12 12 12 11 11 11 11 11 11 10 10 10 10 9 9 9 9 8 8 8 8 8 7 7 7 7 6 6 6 6 6 6 5 5 5 5 5 5 5 6 6 6 6
11 11 11 11 11 10 10 10 10 10 10 9 9 9 8 8 8 8 8 7 7 7 6 6 6 6 5 5 5 5 5 4 4 4 4 4 4 4 4 4 4 5 5
11 10 10 10 10 10 10 9 9 9 9 9 8 8 8 7 7 7 6 6 6 6 5 5 5 5 4 4 4 4 4 3 3 3 3 3 3 3 3 3 3 3 3
10 10 10 10 9 9 9 9 8 8 8 8 7 7 7 6 6 5 5 5 4 4 4 4 4 3 3 3 3 3 2 2 2 2 2 2 2 2 2 3 3 3 3
10 9 9 9 9 8 8 8 8 7 7 7 6 6 5 5 5 4 4 4 3 3 3 3 2 2 2 2 2 1 1 2 1 1 1 1 1 1 2 2 2 2 2
9 9 8 8 8 8 7 7 7 6 6 6 5 5 4 4 4 3 3 3 3 2 2 2 1 1 1 1 1 1 1 1 1 1 1 1 1 1 1 1 1 1 1
8 8 8 8 7 7 7 6 6 5 5 5 4 4 3 3 2 2 2 2 1 1 1 1 0 0 0 -0 -0 -0 -0 -0 -0 0 0 -0 -0 0 0 0 1 1 1
8 7 7 7 6 6 6 5 5 4 4 3 3 2 2 2 2 1 1 1 0 0 -0 -0 -0 -0 -1 -1 -1 -1 -1 -0 -0 -0 -0 -0 -0 -0 -0 0 0 1 1
7 6 6 6 5 5 5 4 4 3 3 2 2 1 1 1 1 1 0 0 -0 -0 -1 -1 -1 -1 -1 -1 -1 -1 -1 -1 -1 -1 -1 -1 -1 -1 -0 0 0 1 1
6 6 5 5 4 4 4 3 3 2 2 1 1 1 0 0 0 -0 -0 -0 -1 -1 -1 -1 -1 -1 -1 -1 -2 -2 -1 -1 -1 -1 -1 -1 -1 -1 -0 -0 0 0 1
5 5 5 4 4 3 3 2 2 2 1 1 0 0 0 -0 -0 -1 -1 -1 -1 -1 -1 -1 -1 -1 -1 -1 -2 -2 -1 -1 -1 -1 -1 -1 -1 -1 -1 -1 -0 0 0
5 4 4 3 3 2 2 2 1 1 1 0 0 -0 -0 -0 -1 -1 -1 -1 -1 -1 -1 -1 -1 -1 -1 -1 -1 -1 -1 -2 -2 -1 -1 -1 -1 -1 -1 -1 -0 -0 0
4 3 3 3 2 2 1 1 1 0 0 0 -0 -0 -1 -1 -1 -1 -1 -1 -1 -1 -1 -1 -1 -1 -1 -1 -1 -1 -1 -2 -2 -1 -1 -1 -1 -1 -1 -1 -1 -0 -0
3 3 2 2 2 1 1 1 0 0 -0 -0 -0 -1 -1 -1 -1 -1 -1 -1 -1 -1 -1 -1 -1 -1 -1 -1 -1 -1 -1 -1 -1 -1 -1 -1 -1 -1 -1 -1 -1 -1 -0
Wind_Speed
8 7 7 7 6 6 6 7 7 6 6 7 7 7 7 7 7 6 6 5 5 4 4 4 5 4 3 3 3 3 3 3 4 4 3 3 3 5 6 7 8 10 11
7 7 7 6 6 6 6 6 6 6 6 7 7 7 8 8 8 8 8 7 7 7 6 6 6 4 5 4 4 4 4 5 5 6 4 3 5 5 5 6 7 9 10
7 7 6 6 6 6 6 5 5 5 5 6 6 8 8 8 8 9 8 8 8 8 7 7 7 6 6 5 5 5 5 5 5 5 6 4 4 4 4 5 6 7 10
7 7 6 6 6 6 5 5 5 5 5 5 5 6 7 7 7 7 7 7 7 7 6 6 6 6 7 6 5 6 5 5 5 6 6 6 5 4 4 5 7 6 7
7 6 6 5 5 4 4 4 4 4 4 3 3 3 3 4 5 6 6 6 6 5 4 4 3 3 4 4 4 4 4 4 4 5 6 6 6 5 5 4 8 9 9
8 7 5 5 4 4 3 3 3 3 2 2 2 2 2 1 2 5 5 4 3 3 2 1 1 2 2 2 1 1 2 3 4 5 6 7 9 7 6 6 8 9 8
7 6 5 5 5 4 4 3 3 2 3 3 3 3 4 3 4 4 4 4 3 3 3 3 3 4 5 3 3 3 3 2 2 4 6 7 7 6 7 9 8 9 11
7 6 6 6 5 5 5 4 4 4 5 5 5 6 6 6 8 8 8 7 6 6 5 4 4 4 5 5 4 4 4 4 4 3 4 6 7 8 7 8 10 10 11
7 7 6 6 6 6 6 6 5 6 7 6 6 7 8 8 10 10 8 6 6 5 5 5 4 3 5 5 4 4 5 5 5 7 9 10 12 13 10 7 7 8 10
8 7 7 7 8 8 7 7 6 7 7 7 8 8 8 8 9 10 8 5 5 4 4 4 5 5 5 5 3 3 5 6 7 8 7 9 9 10 10 6 7 8 8
8 9 9 9 9 8 8 7 7 8 8 8 9 8 8 8 9 10 8 5 4 3 3 3 4 6 6 6 3 2 4 6 6 6 6 7 7 7 7 7 7 7 9
10 11 10 9 8 8 9 8 7 8 9 7 7 7 6 6 8 8 10 8 5 3 2 2 3 6 6 6 4 5 6 5 4 5 6 7 7 8 8 9 11 11 11
11 10 9 9 8 7 8 8 6 6 6 5 5 5 4 4 6 9 9 8 7 3 2 4 5 7 7 5 6 8 6 5 5 6 7 7 8 9 10 10 11 12 13
11 9 8 9 8 8 7 6 5 5 5 4 4 3 3 4 5 5 5 5 6 5 4 5 6 6 5 5 6 6 5 5 5 6 7 8 8 8 9 9 10 11 11
10 8 8 8 8 8 8 7 6 5 3 4 3 3 3 3 4 6 4 4 3 3 3 3 4 5 6 6 6 7 7 7 7 7 8 8 9 9 9 9 9 10 11
8 7 6 6 6 7 7 8 13 11 12 11 9 6 5 6 6 8 8 8 8 6 4 3 4 5 6 6 7 7 7 8 8 8 8 9 9 10 10 10 10 10 12
7 6 5 5 6 5 5 6 6 8 11 12 11 11 9 8 9 9 9 8 8 7 4 4 5 6 7 7 7 8 8 9 9 9 9 9 10 10 11 11 11 11 12
7 7 6 5 5 5 5 5 5 5 5 5 7 9 9 8 9 9 8 6 6 6 5 5 6 6 7 7 8 8 9 10 9 9 9 10 10 10 11 11 11 13 13
6 5 5 5 5 5 5 5 5 5 4 4 4 5 8 7 7 8 7 5 5 6 6 6 6 7 7 8 8 9 9 10 10 10 10 10 10 11 12 12 12 15 14
6 9 8 6 6 5 5 5 4 4 4 3 3 4 4 5 5 6 6 5 5 6 7 7 7 8 8 8 9 9 9 10 10 10 10 10 11 11 12 14 13 13 12
5 6 9 7 5 5 4 4 3 3 2 2 2 3 4 3 4 5 5 6 6 7 7 8 8 8 8 8 8 9 11 10 10 10 10 11 11 12 12 12 13 13 13
5 5 5 5 4 4 4 3 3 2 2 2 2 3 4 3 4 5 5 6 7 7 7 7 8 8 8 8 9 9 10 10 10 11 11 11 11 12 12 12 12 12 12
5 5 5 4 4 4 4 3 2 2 2 2 3 3 3 4 4 5 5 6 7 8 9 9 8 8 9 11 11 9 9 10 10 11 12 12 11 11 12 12 14 15 13
5 5 5 4 4 3 3 2 2 2 2 2 3 3 3 4 4 5 6 6 7 8 10 10 9 11 14 14 13 13 12 14 16 13 13 12 12 12 12 12 13 14 14
5 4 4 3 3 2 2 2 2 2 2 2 2 3 3 4 5 5 6 7 8 9 11 12 11 12 15 17 16 16 19 21 18 16 14 11 12 13 13 13 13 14 14
4 4 3 3 2 2 2 2 2 2 2 2 2 3 3 4 5 6 6 7 8 9 10 11 14 16 17 16 17 21 21 20 19 18 14 10 11 11 12 11 14 13 14
Wind_Direction
166 170 170 175 179 175 184 199 200 198 195 198 199 197 198 197 191 190 201 195 198 205 202 204 216 202 201 199 190 188 192 186 223 263 250 265 271 276 286 276 269 264 264
170 171 178 177 175 180 194 203 199 201 203 204 199 201 205 204 197 199 207 205 207 215 218 217 228 218 219 215 208 213 214 210 222 260 268 261 254 262 271 276 273 267 262
168 171 176 179 181 188 195 196 196 202 208 206 199 205 209 206 203 208 210 211 214 220 221 223 233 226 236 234 228 233 235 229 224 247 271 265 267 266 276 279 275 271 270
165 171 180 186 188 191 189 190 196 198 203 210 210 215 215 212 211 212 214 219 223 227 226 227 234 231 240 243 241 243 243 243 238 248 268 275 274 271 264 283 292 285 281
165 172 184 179 173 173 178 187 189 191 203 204 205 222 220 214 219 212 212 217 220 227 227 225 234 237 243 241 246 252 246 250 256 263 274 283 286 287 283 283 289 295 289
163 169 163 157 161 164 168 167 164 164 162 150 176 189 195 221 210 194 187 191 188 196 201 169 107 43 20 14 332 287 244 247 261 266 273 279 286 290 292 290 292 294 293
145 140 137 140 137 129 127 120 120 116 112 113 116 107 92 62 75 103 128 118 108 100 95 87 75 53 43 25 13 18 13 356 291 264 275 284 294 300 303 298 289 282 279
120 117 117 118 111 105 102 96 91 92 95 94 89 91 87 69 75 87 95 93 83 75 76 83 81 52 32 24 15 12 1 346 322 303 277 283 289 293 287 283 284 283 278
106 103 100 103 101 91 85 85 88 92 88 84 83 83 82 67 69 80 89 91 86 73 64 65 72 59 28 24 22 358 341 334 333 331 316 304 301 300 299 295 289 288 289
94 92 88 91 94 92 88 86 86 89 88 86 79 73 75 67 59 68 78 86 82 70 53 43 42 32 18 19 14 347 329 324 329 330 326 321 315 310 308 291 284 286 289
87 85 82 84 89 90 85 80 85 87 84 81 80 70 65 63 57 60 67 75 81 74 52 26 13 8 7 5 354 328 306 310 317 320 321 321 321 319 317 310 292 280 282
84 81 77 74 80 87 86 80 81 89 88 83 80 68 55 48 52 55 58 63 72 82 56 15 353 355 358 354 352 339 336 339 337 333 330 326 323 321 318 312 304 294 280
82 78 76 74 72 77 85 87 82 81 91 89 84 78 58 41 37 41 45 46 46 51 31 12 2 356 351 351 347 344 347 348 341 333 325 318 314 310 310 309 307 305 297
85 79 77 78 74 66 66 70 81 83 93 96 93 85 63 41 31 24 25 27 24 23 14 3 359 356 353 342 341 344 342 333 325 315 311 309 310 311 310 311 310 313 309
83 79 76 76 80 74 66 56 63 60 82 103 100 96 80 51 16 19 26 18 7 1 1 8 7 357 351 345 341 336 335 332 326 319 314 314 313 312 310 311 306 308 303
89 82 82 84 85 91 92 74 54 62 66 71 77 80 64 58 44 37 30 25 21 21 32 5 350 342 336 333 330 329 327 325 320 315 312 311 312 312 310 308 305 304 302
95 93 90 92 97 99 99 100 86 59 57 59 59 59 59 50 43 35 27 26 24 26 24 357 344 337 332 329 327 324 321 318 314 311 309 310 309 308 308 306 305 304 302
88 90 93 93 99 101 102 102 102 99 76 50 39 41 42 40 36 29 21 24 18 15 3 348 339 335 331 328 325 322 318 316 315 313 310 310 309 307 306 305 303 302 302
88 87 87 89 90 92 93 93 92 90 84 65 38 27 22 24 26 22 20 21 6 355 348 340 334 330 326 322 320 318 316 313 312 312 309 308 307 305 302 301 301 299 298
85 96 96 93 90 88 88 90 88 85 77 62 42 21 8 17 18 8 8 1 354 344 338 332 327 322 320 318 317 317 316 315 315 312 310 307 306 304 301 301 300 299 298
93 97 99 94 93 94 95 94 92 88 76 52 22 1 4 9 3 356 353 350 344 337 333 328 323 320 318 316 315 315 315 312 311 310 309 308 306 304 301 300 299 298 297
103 101 100 99 95 93 92 92 91 81 59 33 9 3 5 11 1 354 349 343 339 334 329 324 320 319 319 318 317 316 313 312 313 313 309 305 303 301 302 301 301 301 301
105 104 100 95 96 98 92 82 73 56 32 14 5 4 6 3 355 350 344 340 337 334 333 331 326 323 324 322 319 315 311 312 313 310 307 303 302 301 301 300 300 303 303
105 106 105 100 95 92 83 64 46 34 20 11 9 6 2 358 354 349 345 339 336 333 332 331 327 326 327 326 321 318 316 316 315 308 302 298 297 297 297 298 299 301 302
103 103 104 102 98 90 77 60 45 39 32 24 16 8 2 356 350 345 341 337 334 332 332 332 330 329 327 325 325 323 321 318 313 311 305 297 293 293 295 298 299 301 301
100 99 95 90 85 80 79 67 48 40 34 22 12 2 353 346 340 337 336 335 334 331 331 330 330 331 328 328 326 325 322 319 318 315 310 300 296 295 300 300 301 301 302
Height
1513 1517 1521 1525 1529 1532 1535 1537 1540 1542 1544 1545 1547 1548 1549 1550 1551 1552 1552 1553 1554 1555 1555 1556 1557 1558 1558 1559 1559 1560 1560 1560 1559 1559 1560 1560 1560 1560 1560 1560 1560 1559 1559
1512 1516 1520 1523 1527 1530 1533 1535 1538 1540 1542 1543 1545 1546 1547 1548 1549 1549 1550 1551 1552 1553 1553 1554 1555 1556 1556 1557 1557 1557 1557 1557 1556 1555 1555 1556 1556 1556 1555 1555 1555 1554 1554
1511 1515 1518 1522 1525 1528 1530 1533 1535 1537 1539 1541 1542 1544 1544 1545 1546 1547 1548 1548 1549 1550 1551 1552 1552 1553 1553 1554 1554 1554 1554 1553 1553 1552 1551 1551 1551 1551 1550 1549 1549 1548 1548
1510 1513 1516 1520 1523 1526 1528 1531 1533 1534 1536 1538 1539 1541 1541 1542 1543 1544 1544 1545 1546 1547 1547 1548 1549 1549 1549 1550 1550 1549 1549 1549 1549 1547 1546 1546 1545 1545 1544 1543 1542 1542 1541
1508 1511 1515 1518 1520 1523 1525 1528 1530 1531 1533 1534 1535 1537 1538 1538 1539 1540 1540 1541 1542 1543 1543 1544 1544 1545 1545 1545 1545 1545 1544 1544 1543 1542 1541 1540 1539 1538 1538 1536 1534 1533 1532
1506 1509 1512 1515 1518 1520 1522 1524 1526 1528 1529 1530 1531 1532 1533 1534 1534 1535 1536 1536 1537 1538 1539 1539 1539 1540 1540 1540 1539 1539 1539 1538 1537 1537 1535 1534 1533 1532 1531 1529 1527 1525 1523
1503 1507 1510 1512 1515 1517 1519 1521 1523 1524 1525 1526 1527 1528 1529 1529 1530 1531 1531 1532 1533 1533 1534 1534 1534 1535 1535 1535 1534 1534 1533 1532 1532 1531 1529 1528 1527 1525 1523 1521 1520 1518 1515
1502 1505 1507 1510 1513 1515 1516 1518 1519 1521 1522 1523 1524 1524 1525 1526 1527 1527 1528 1528 1529 1529 1530 1530 1530 1530 1530 1529 1529 1528 1528 1527 1525 1524 1523 1521 1520 1518 1516 1514 1511 1508 1506
1501 1504 1506 1509 1511 1513 1515 1516 1517 1518 1519 1520 1521 1522 1523 1523 1524 1525 1525 1526 1526 1526 1526 1526 1526 1525 1524 1524 1523 1522 1522 1521 1519 1518 1516 1515 1513 1512 1509 1506 1504 1501 1496
1501 1504 1506 1509 1510 1512 1514 1515 1516 1517 1518 1519 1519 1521 1521 1522 1522 1523 1523 1524 1523 1524 1524 1523 1522 1521 1520 1519 1518 1516 1515 1513 1512 1510 1509 1507 1505 1504 1502 1499 1496 1493 1489
1502 1504 1506 1509 1511 1512 1514 1515 1516 1517 1518 1519 1519 1520 1520 1521 1521 1521 1521 1521 1521 1521 1521 1520 1519 1518 1516 1514 1513 1511 1509 1506 1504 1502 1500 1499 1497 1496 1494 1492 1490 1487 1483
1504 1506 1508 1510 1512 1513 1515 1516 1517 1518 1518 1519 1520 1520 1520 1520 1520 1520 1519 1519 1518 1518 1517 1516 1515 1513 1512 1510 1509 1506 1504 1501 1499 1496 1494 1492 1490 1488 1486 1484 1482 1480 1477
1506 1508 1510 1512 1514 1515 1516 1517 1518 1519 1519 1519 1520 1520 1520 1519 1519 1518 1518 1517 1516 1515 1513 1512 1510 1509 1508 1506 1504 1501 1499 1496 1493 1490 1488 1486 1483 1481 1479 1476 1473 1471 1468
1509 1511 1513 1514 1516 1517 1518 1519 1519 1520 1520 1520 1520 1520 1519 1519 1518 1517 1516 1514 1513 1511 1510 1508 1506 1505 1503 1501 1499 1496 1493 1491 1488 1485 1482 1480 1477 1474 1472 1469 1465 1461 1457
1512 1513 1515 1517 1518 1518 1519 1520 1520 1520 1520 1520 1520 1519 1518 1517 1516 1515 1513 1511 1510 1508 1506 1504 1502 1500 1498 1496 1493 1491 1488 1486 1483 1480 1477 1474 1471 1468 1465 1462 1459 1455 1451
1514 1516 1517 1518 1519 1520 1520 1520 1520 1520 1520 1520 1519 1518 1516 1516 1514 1513 1511 1509 1507 1504 1502 1500 1498 1496 1493 1491 1488 1486 1483 1481 1478 1475 1472 1469 1466 1462 1459 1456 1453 1449 1445
1517 1518 1518 1519 1520 1520 1520 1520 1520 1520 1520 1519 1518 1516 1515 1514 1512 1510 1508 1506 1504 1501 1499 1497 1494 1492 1489 1487 1484 1481 1479 1476 1473 1470 1467 1464 1461 1457 1453 1450 1447 1443 1439
1519 1519 1519 1520 1520 1520 1520 1520 1520 1519 1519 1517 1516 1515 1513 1511 1509 1507 1505 1503 1501 1499 1496 1494 1491 1489 1486 1483 1480 1477 1474 1471 1468 1465 1462 1459 1455 1452 1448 1444 1440 1437 1432
1519 1520 1520 1520 1520 1520 1520 1519 1519 1518 1517 1516 1515 1513 1512 1510 1508 1506 1503 1501 1498 1496 1494 1491 1488 1485 1482 1479 1476 1473 1469 1466 1463 1460 1456 1453 1449 1446 1442 1438 1434 1430 1426
1520 1520 1520 1520 1520 1519 1519 1519 1518 1517 1516 1515 1513 1512 1510 1508 1506 1504 1501 1499 1497 1494 1491 1488 1485 1482 1478 1475 1472 1469 1465 1462 1458 1455 1451 1447 1444 1440 1436 1431 1427 1423 1419
1519 1520 1520 1519 1519 1519 1519 1518 1517 1516 1515 1514 1513 1511 1509 1507 1505 1503 1500 1498 1495 1491 1488 1485 1482 1478 1475 1471 1468 1464 1461 1457 1454 1450 1446 1442 1438 1434 1430 1426 1421 1417 1413
1519 1519 1519 1519 1519 1518 1518 1517 1516 1515 1514 1513 1512 1510 1508 1506 1504 1502 1499 1496 1493 1490 1486 1482 1479 1475 1471 1468 1464 1460 1456 1452 1448 1444 1440 1436 1432 1428 1424 1420 1416 1412 1407
1519 1519 1519 1518 1518 1518 1517 1516 1516 1515 1514 1512 1511 1509 1507 1505 1503 1500 1497 1494 1491 1487 1483 1480 1476 1472 1468 1464 1461 1456 1452 1447 1443 1439 1435 1430 1426 1422 1418 1414 1410 1406 1402
1518 1518 1518 1518 1517 1517 1516 1516 1515 1514 1513 1512 1510 1508 1506 1504 1502 1499 1496 1492 1489 1485 1481 1477 1473 1469 1465 1461 1457 1452 1448 1443 1439 1434 1430 1425 1421 1417 1413 1408 1404 1401 1397
1518 1517 1517 1517 1516 1516 1516 1515 1514 1513 1512 1511 1509 1507 1505 1503 1500 1497 1494 1490 1487 1483 1479 1475 1470 1466 1461 1457 1453 1448 1444 1439 1435 1430 1425 1421 1416 1412 1408 1403 1399 1395 1392
1517 1517 1517 1516 1516 1516 1515 1515 1514 1513 1512 1510 1508 1506 1504 1501 1498 1495 1492 1488 1484 1481 1476 1472 1468 1463 1459 1454 1449 1445 1440 1435 1430 1426 1421 1416 1411 1407 1403 1399 1395 1391 1387